Time,TemperatureF,DewpointF,PressureIn,WindDirection,WindDirectionDegrees,WindSpeedMPH,WindSpeedGustMPH,Humidity,HourlyPrecipIn,Conditions,Clouds,dailyrainin,SoftwareType,DateUTC
2013-02-06 00:02:00,31.8,27.3,30.00,North,360,3.5,5.6,81,0.00,,,0.00,WSDL version 423,2013-02-06 06:02:00,
2013-02-06 00:07:00,31.8,27.3,30.00,NNW,338,2.9,5.4,81,0.00,,,0.00,WSDL version 423,2013-02-06 06:07:00,
2013-02-06 00:12:00,31.8,27.2,30.00,North,356,2.2,4.3,81,0.00,,,0.00,WSDL version 423,2013-02-06 06:12:00,
2013-02-06 00:17:00,31.6,27.1,30.00,North,349,1.9,4.3,81,0.00,,,0.00,WSDL version 423,2013-02-06 06:17:00,
2013-02-06 00:22:00,31.6,27.1,30.00,North,360,3.0,4.9,81,0.00,,,0.00,WSDL version 423,2013-02-06 06:22:00,
2013-02-06 00:27:00,31.6,27.1,30.00,NNE,19,2.5,4.9,81,0.00,,,0.00,WSDL version 423,2013-02-06 06:27:00,
2013-02-06 00:32:00,31.6,27.0,30.00,North,351,1.8,4.3,81,0.00,,,0.00,WSDL version 423,2013-02-06 06:32:00,
2013-02-06 00:37:00,31.5,26.9,30.00,NNE,14,1.4,2.9,81,0.00,,,0.00,WSDL version 423,2013-02-06 06:37:00,
2013-02-06 00:42:00,31.3,26.8,30.00,NNW,338,0.4,3.4,82,0.00,,,0.00,WSDL version 423,2013-02-06 06:42:00,
2013-02-06 00:47:00,31.3,27.0,30.03,East,90,0.0,3.4,82,0.00,,,0.00,WSDL version 423,2013-02-06 06:47:00,
2013-02-06 00:52:00,31.3,27.0,30.03,NNW,348,0.5,1.3,82,0.00,,,0.00,WSDL version 423,2013-02-06 06:52:00,
2013-02-06 00:57:00,31.3,27.0,30.03,WSW,254,0.0,1.3,82,0.00,,,0.00,WSDL version 423,2013-02-06 06:57:00,
2013-02-06 01:02:00,31.3,27.0,30.03,NNW,329,0.0,1.3,82,0.00,,,0.00,WSDL version 423,2013-02-06 07:02:00,
2013-02-06 01:07:00,31.3,27.0,30.03,NNW,338,0.0,0.0,82,0.00,,,0.00,WSDL version 423,2013-02-06 07:07:00,
2013-02-06 01:12:00,31.2,27.2,30.03,NNW,338,0.0,0.0,83,0.00,,,0.00,WSDL version 423,2013-02-06 07:12:00,
2013-02-06 01:17:00,31.1,27.1,30.03,NNW,338,0.0,0.0,83,0.00,,,0.00,WSDL version 423,2013-02-06 07:17:00,
2013-02-06 01:22:00,31.1,27.1,30.03,West,270,0.0,0.0,83,0.00,,,0.00,WSDL version 423,2013-02-06 07:22:00,
2013-02-06 01:27:00,30.9,26.9,30.03,NW,315,0.0,0.0,83,0.00,,,0.00,WSDL version 423,2013-02-06 07:27:00,
2013-02-06 01:32:00,30.8,26.8,30.03,WSW,248,0.0,0.0,83,0.00,,,0.00,WSDL version 423,2013-02-06 07:32:00,
2013-02-06 01:37:00,30.7,26.7,30.03,West,270,0.0,0.0,83,0.00,,,0.00,WSDL version 423,2013-02-06 07:37:00,
2013-02-06 01:42:00,30.7,26.9,30.03,West,270,0.0,0.0,84,0.00,,,0.00,WSDL version 423,2013-02-06 07:42:00,
2013-02-06 01:47:00,30.7,26.9,30.03,WNW,285,0.0,0.0,84,0.00,,,0.00,WSDL version 423,2013-02-06 07:47:00,
2013-02-06 01:52:00,30.4,26.4,30.03,ENE,68,0.0,0.0,83,0.00,,,0.00,WSDL version 423,2013-02-06 07:52:00,
2013-02-06 01:57:00,30.4,26.4,30.03,SSE,158,0.0,0.0,84,0.00,,,0.00,WSDL version 423,2013-02-06 07:57:00,
2013-02-06 02:02:00,30.3,26.5,30.03,North,360,0.0,0.0,84,0.00,,,0.00,WSDL version 423,2013-02-06 08:02:00,
2013-02-06 02:07:00,30.0,26.3,30.03,SSW,203,0.0,0.0,84,0.00,,,0.00,WSDL version 423,2013-02-06 08:07:00,
2013-02-06 02:12:00,30.0,26.3,30.03,SSW,203,0.0,0.0,84,0.00,,,0.00,WSDL version 423,2013-02-06 08:12:00,
2013-02-06 02:17:00,30.0,26.5,30.06,SSW,203,0.0,0.0,85,0.00,,,0.00,WSDL version 423,2013-02-06 08:17:00,
2013-02-06 02:22:00,29.9,26.4,30.06,SSW,203,0.0,0.0,85,0.00,,,0.00,WSDL version 423,2013-02-06 08:22:00,
2013-02-06 02:27:00,29.6,25.8,30.06,SSW,203,0.0,0.0,84,0.00,,,0.00,WSDL version 423,2013-02-06 08:27:00,
2013-02-06 02:32:00,29.5,25.9,30.06,SSW,203,0.0,0.0,84,0.00,,,0.00,WSDL version 423,2013-02-06 08:32:00,
2013-02-06 02:37:00,29.0,25.3,30.06,SSW,203,0.0,0.0,84,0.00,,,0.00,WSDL version 423,2013-02-06 08:37:00,
2013-02-06 02:43:00,28.8,25.1,30.03,SSW,203,0.0,0.0,84,0.00,,,0.00,WSDL version 423,2013-02-06 08:43:00,
2013-02-06 02:48:00,28.6,24.8,30.03,SSW,203,0.0,0.0,84,0.00,,,0.00,WSDL version 423,2013-02-06 08:48:00,
2013-02-06 02:53:00,28.2,24.5,30.03,SSW,203,0.0,0.0,84,0.00,,,0.00,WSDL version 423,2013-02-06 08:53:00,
2013-02-06 02:58:00,28.0,24.3,30.03,SSW,194,0.0,2.0,85,0.00,,,0.00,WSDL version 423,2013-02-06 08:58:00,
2013-02-06 03:04:00,27.9,24.2,30.03,SE,143,0.0,2.5,85,0.00,,,0.00,WSDL version 423,2013-02-06 09:04:00,
2013-02-06 03:09:00,27.3,23.5,30.03,NNE,23,0.0,2.2,83,0.00,,,0.00,WSDL version 423,2013-02-06 09:09:00,
2013-02-06 03:14:00,26.9,23.2,30.03,ENE,68,0.0,0.0,84,0.00,,,0.00,WSDL version 423,2013-02-06 09:14:00,
2013-02-06 03:19:00,26.9,23.4,30.03,ESE,113,0.0,0.0,85,0.00,,,0.00,WSDL version 423,2013-02-06 09:19:00,
2013-02-06 03:24:00,26.8,23.3,30.03,ESE,113,0.0,0.0,85,0.00,,,0.00,WSDL version 423,2013-02-06 09:24:00,
2013-02-06 03:29:00,26.4,23.0,30.06,SE,126,0.0,0.0,85,0.00,,,0.00,WSDL version 423,2013-02-06 09:29:00,
2013-02-06 03:34:00,26.3,23.0,30.06,SE,135,0.0,0.0,86,0.00,,,0.00,WSDL version 423,2013-02-06 09:34:00,
2013-02-06 03:39:00,26.0,22.6,30.06,ESE,113,0.0,0.0,85,0.00,,,0.00,WSDL version 423,2013-02-06 09:39:00,
2013-02-06 03:44:00,25.7,22.2,30.06,ESE,113,0.0,0.0,85,0.00,,,0.00,WSDL version 423,2013-02-06 09:44:00,
2013-02-06 03:49:00,25.3,21.9,30.06,ESE,113,0.0,0.0,85,0.00,,,0.00,WSDL version 423,2013-02-06 09:49:00,
2013-02-06 03:54:00,25.3,21.9,30.06,ESE,113,0.0,0.0,86,0.00,,,0.00,WSDL version 423,2013-02-06 09:54:00,
2013-02-06 03:59:00,25.3,22.2,30.06,ESE,113,0.0,0.0,86,0.00,,,0.00,WSDL version 423,2013-02-06 09:59:00,
2013-02-06 04:04:00,25.2,22.0,30.06,ESE,113,0.0,0.0,86,0.00,,,0.00,WSDL version 423,2013-02-06 10:04:00,
2013-02-06 04:09:00,25.1,22.0,30.06,ESE,113,0.0,0.0,87,0.00,,,0.00,WSDL version 423,2013-02-06 10:09:00,
2013-02-06 04:14:00,25.0,22.0,30.06,ESE,113,0.0,0.0,87,0.00,,,0.00,WSDL version 423,2013-02-06 10:14:00,
2013-02-06 04:19:00,25.1,22.1,30.06,ESE,113,0.0,0.0,87,0.00,,,0.00,WSDL version 423,2013-02-06 10:19:00,
2013-02-06 04:24:00,24.8,21.8,30.06,ESE,113,0.0,0.0,87,0.00,,,0.00,WSDL version 423,2013-02-06 10:24:00,
2013-02-06 04:29:00,24.6,21.6,30.06,ESE,113,0.0,0.0,87,0.00,,,0.00,WSDL version 423,2013-02-06 10:29:00,
2013-02-06 04:34:00,24.4,21.5,30.06,ESE,113,0.0,0.0,87,0.00,,,0.00,WSDL version 423,2013-02-06 10:34:00,
2013-02-06 04:39:00,24.4,21.7,30.06,ESE,113,0.0,0.0,88,0.00,,,0.00,WSDL version 423,2013-02-06 10:39:00,
2013-02-06 04:44:00,24.2,21.4,30.06,ESE,113,0.0,0.0,87,0.00,,,0.00,WSDL version 423,2013-02-06 10:44:00,
2013-02-06 04:49:00,23.9,21.0,30.06,ESE,113,0.0,0.0,87,0.00,,,0.00,WSDL version 423,2013-02-06 10:49:00,
2013-02-06 04:54:00,23.9,21.1,30.06,ESE,113,0.0,0.0,88,0.00,,,0.00,WSDL version 423,2013-02-06 10:54:00,
2013-02-06 04:59:00,23.9,21.2,30.06,ESE,113,0.0,0.0,88,0.00,,,0.00,WSDL version 423,2013-02-06 10:59:00,
2013-02-06 05:04:00,24.0,21.4,30.06,ESE,113,0.0,0.0,89,0.00,,,0.00,WSDL version 423,2013-02-06 11:04:00,
2013-02-06 05:09:00,24.0,21.5,30.06,ESE,113,0.0,0.0,89,0.00,,,0.00,WSDL version 423,2013-02-06 11:09:00,
2013-02-06 05:14:00,23.8,21.3,30.06,ESE,113,0.0,0.0,89,0.00,,,0.00,WSDL version 423,2013-02-06 11:14:00,
2013-02-06 05:19:00,23.6,21.2,30.06,ESE,113,0.0,0.0,89,0.00,,,0.00,WSDL version 423,2013-02-06 11:19:00,
2013-02-06 05:24:00,23.5,20.9,30.06,ESE,113,0.0,0.0,88,0.00,,,0.00,WSDL version 423,2013-02-06 11:24:00,
2013-02-06 05:29:00,23.2,20.6,30.06,ESE,113,0.0,0.0,88,0.00,,,0.00,WSDL version 423,2013-02-06 11:29:00,
2013-02-06 05:34:00,23.4,20.9,30.06,ESE,113,0.0,0.0,89,0.00,,,0.00,WSDL version 423,2013-02-06 11:34:00,
2013-02-06 05:39:00,23.6,21.3,30.06,SSE,158,0.0,0.0,90,0.00,,,0.00,WSDL version 423,2013-02-06 11:39:00,
2013-02-06 05:44:00,23.8,21.5,30.06,SSE,158,0.0,0.0,90,0.00,,,0.00,WSDL version 423,2013-02-06 11:44:00,
2013-02-06 05:49:00,23.6,21.4,30.06,SSE,158,0.0,0.0,90,0.00,,,0.00,WSDL version 423,2013-02-06 11:49:00,
2013-02-06 05:54:00,23.5,21.3,30.06,SSE,158,0.0,0.0,90,0.00,,,0.00,WSDL version 423,2013-02-06 11:54:00,
2013-02-06 05:59:00,23.8,21.6,30.09,SSE,158,0.0,0.0,90,0.00,,,0.00,WSDL version 423,2013-02-06 11:59:00,
2013-02-06 06:04:00,24.0,22.0,30.09,SSE,158,0.0,0.9,91,0.00,,,0.00,WSDL version 423,2013-02-06 12:04:00,
2013-02-06 06:09:00,24.0,22.0,30.09,East,90,0.0,0.9,90,0.00,,,0.00,WSDL version 423,2013-02-06 12:09:00,
2013-02-06 06:14:00,23.7,21.5,30.09,East,90,0.0,0.0,90,0.00,,,0.00,WSDL version 423,2013-02-06 12:14:00,
2013-02-06 06:19:00,23.9,21.7,30.09,East,90,0.0,0.0,90,0.00,,,0.00,WSDL version 423,2013-02-06 12:19:00,
2013-02-06 06:24:00,24.1,22.0,30.09,East,90,0.0,0.0,91,0.00,,,0.00,WSDL version 423,2013-02-06 12:24:00,
2013-02-06 06:29:00,24.3,22.3,30.09,ENE,68,0.0,0.0,91,0.00,,,0.00,WSDL version 423,2013-02-06 12:29:00,
2013-02-06 06:34:00,24.4,22.4,30.09,SSE,158,0.0,0.0,91,0.00,,,0.00,WSDL version 423,2013-02-06 12:34:00,
2013-02-06 06:39:00,24.4,22.4,30.09,East,90,0.0,0.0,91,0.00,,,0.00,WSDL version 423,2013-02-06 12:39:00,
2013-02-06 06:44:00,24.4,22.4,30.09,East,90,0.0,0.0,91,0.00,,,0.00,WSDL version 423,2013-02-06 12:44:00,
2013-02-06 06:49:00,24.4,22.6,30.09,East,90,0.0,0.0,92,0.00,,,0.00,WSDL version 423,2013-02-06 12:49:00,
2013-02-06 06:54:00,24.4,22.4,30.09,ESE,109,0.0,0.0,91,0.00,,,0.00,WSDL version 423,2013-02-06 12:54:00,
2013-02-06 06:59:00,24.4,22.4,30.09,East,98,0.0,0.0,91,0.00,,,0.00,WSDL version 423,2013-02-06 12:59:00,
2013-02-06 07:04:00,24.4,22.4,30.09,SSE,158,0.0,0.0,91,0.00,,,0.00,WSDL version 423,2013-02-06 13:04:00,
2013-02-06 07:09:00,24.3,22.3,30.09,ESE,113,0.0,0.0,91,0.00,,,0.00,WSDL version 423,2013-02-06 13:09:00,
2013-02-06 07:14:00,24.3,22.3,30.09,ESE,113,0.0,0.0,91,0.00,,,0.00,WSDL version 423,2013-02-06 13:14:00,
2013-02-06 07:19:00,24.3,22.3,30.09,ESE,113,0.0,0.0,91,0.00,,,0.00,WSDL version 423,2013-02-06 13:19:00,
2013-02-06 07:24:00,24.3,22.3,30.09,ESE,113,0.0,0.0,91,0.00,,,0.00,WSDL version 423,2013-02-06 13:24:00,
2013-02-06 07:29:00,24.2,22.2,30.09,ESE,113,0.0,0.0,91,0.00,,,0.00,WSDL version 423,2013-02-06 13:29:00,
2013-02-06 07:34:00,24.4,22.5,30.09,ESE,113,0.0,0.0,92,0.00,,,0.00,WSDL version 423,2013-02-06 13:34:00,
2013-02-06 07:39:00,24.5,22.7,30.09,ESE,113,0.0,0.0,92,0.00,,,0.00,WSDL version 423,2013-02-06 13:39:00,
2013-02-06 07:44:00,24.7,23.0,30.09,ESE,113,0.0,0.0,92,0.00,,,0.00,WSDL version 423,2013-02-06 13:44:00,
2013-02-06 07:49:00,25.1,23.3,30.09,South,169,0.0,2.2,92,0.00,,,0.00,WSDL version 423,2013-02-06 13:49:00,
2013-02-06 07:54:00,25.5,23.7,30.09,ENE,68,0.0,2.2,93,0.00,,,0.00,WSDL version 423,2013-02-06 13:54:00,
2013-02-06 07:59:00,25.9,24.4,30.09,SSE,158,0.0,1.6,93,0.00,,,0.00,WSDL version 423,2013-02-06 13:59:00,
2013-02-06 08:04:00,26.4,24.8,30.09,SSW,196,0.0,1.6,93,0.00,,,0.00,WSDL version 423,2013-02-06 14:04:00,
2013-02-06 08:09:00,26.9,25.3,30.09,East,101,0.0,0.9,93,0.00,,,0.00,WSDL version 423,2013-02-06 14:09:00,
2013-02-06 08:14:00,27.2,25.7,30.12,SE,128,0.0,0.9,93,0.00,,,0.00,WSDL version 423,2013-02-06 14:14:00,
2013-02-06 08:19:00,27.7,26.1,30.12,SSE,165,0.7,2.0,93,0.00,,,0.00,WSDL version 423,2013-02-06 14:19:00,
2013-02-06 08:24:00,28.2,26.9,30.12,SSE,158,0.0,2.9,94,0.00,,,0.00,WSDL version 423,2013-02-06 14:24:00,
2013-02-06 08:29:00,28.8,27.5,30.12,South,180,0.7,3.1,94,0.00,,,0.00,WSDL version 423,2013-02-06 14:29:00,
2013-02-06 08:34:00,29.5,28.1,30.12,South,191,1.8,4.0,94,0.00,,,0.00,WSDL version 423,2013-02-06 14:34:00,
2013-02-06 08:39:00,30.3,29.0,30.12,South,174,2.9,6.0,94,0.00,,,0.00,WSDL version 423,2013-02-06 14:39:00,
2013-02-06 08:44:00,31.1,29.7,30.12,SSE,165,3.4,6.0,93,0.00,,,0.00,WSDL version 423,2013-02-06 14:44:00,
2013-02-06 08:49:00,31.7,29.8,30.12,SSE,164,4.2,7.2,91,0.00,,,0.00,WSDL version 423,2013-02-06 14:49:00,
2013-02-06 08:54:00,32.3,29.7,30.12,SSE,165,1.5,7.2,90,0.00,,,0.00,WSDL version 423,2013-02-06 14:54:00,
2013-02-06 08:59:00,32.8,29.6,30.09,SE,135,0.4,4.0,87,0.00,,,0.00,WSDL version 423,2013-02-06 14:59:00,
2013-02-06 09:04:00,33.1,29.3,30.09,South,170,1.9,4.0,84,0.00,,,0.00,WSDL version 423,2013-02-06 15:04:00,
2013-02-06 09:09:00,33.6,29.1,30.09,South,180,1.9,4.3,83,0.00,,,0.00,WSDL version 423,2013-02-06 15:09:00,
2013-02-06 09:14:00,33.9,29.0,30.09,West,263,0.2,5.6,82,0.00,,,0.00,WSDL version 423,2013-02-06 15:14:00,
2013-02-06 09:19:00,34.3,29.3,30.09,South,176,1.7,5.6,81,0.00,,,0.00,WSDL version 423,2013-02-06 15:19:00,
2013-02-06 09:24:00,34.7,28.3,30.09,South,190,3.1,7.6,76,0.00,,,0.00,WSDL version 423,2013-02-06 15:24:00,
2013-02-06 09:29:00,35.0,28.2,30.09,SSW,199,2.5,7.6,76,0.00,,,0.00,WSDL version 423,2013-02-06 15:29:00,
2013-02-06 09:34:00,35.3,28.6,30.09,West,270,0.4,6.3,77,0.00,,,0.00,WSDL version 423,2013-02-06 15:34:00,
2013-02-06 09:39:00,35.7,29.1,30.09,South,177,1.4,6.3,76,0.00,,,0.00,WSDL version 423,2013-02-06 15:39:00,
2013-02-06 09:44:00,36.1,29.5,30.09,SW,215,0.0,3.6,77,0.00,,,0.00,WSDL version 423,2013-02-06 15:44:00,
2013-02-06 09:49:00,36.2,29.4,30.09,ENE,59,0.5,2.0,76,0.00,,,0.00,WSDL version 423,2013-02-06 15:49:00,
2013-02-06 09:54:00,36.4,29.1,30.09,SSE,160,2.2,6.3,74,0.00,,,0.00,WSDL version 423,2013-02-06 15:54:00,
2013-02-06 09:59:00,36.6,29.0,30.09,South,176,2.5,6.3,73,0.00,,,0.00,WSDL version 423,2013-02-06 15:59:00,
2013-02-06 10:04:00,36.9,29.2,30.09,South,176,4.0,6.5,72,0.00,,,0.00,WSDL version 423,2013-02-06 16:04:00,
2013-02-06 10:09:00,37.3,28.8,30.09,South,180,4.9,7.6,70,0.00,,,0.00,WSDL version 423,2013-02-06 16:09:00,
2013-02-06 10:14:00,37.4,28.0,30.12,South,191,4.9,7.8,68,0.00,,,0.00,WSDL version 423,2013-02-06 16:14:00,
2013-02-06 10:19:00,37.7,28.5,30.12,South,171,6.0,9.6,69,0.00,,,0.00,WSDL version 423,2013-02-06 16:19:00,
2013-02-06 10:24:00,37.8,28.5,30.12,South,177,6.2,9.6,68,0.00,,,0.00,WSDL version 423,2013-02-06 16:24:00,
2013-02-06 10:29:00,37.8,27.6,30.12,South,189,6.4,11.0,65,0.00,,,0.00,WSDL version 423,2013-02-06 16:29:00,
2013-02-06 10:34:00,37.7,27.3,30.12,SSW,193,5.8,11.0,67,0.00,,,0.00,WSDL version 423,2013-02-06 16:34:00,
2013-02-06 10:39:00,37.9,28.1,30.12,South,189,6.3,8.9,67,0.00,,,0.00,WSDL version 423,2013-02-06 16:39:00,
2013-02-06 10:44:00,38.1,28.4,30.12,SSW,200,4.9,12.1,69,0.00,,,0.00,WSDL version 423,2013-02-06 16:44:00,
2013-02-06 10:49:00,38.4,28.9,30.12,SSW,203,6.9,12.1,67,0.00,,,0.00,WSDL version 423,2013-02-06 16:49:00,
2013-02-06 10:54:00,38.5,28.6,30.12,South,191,6.5,10.7,67,0.00,,,0.00,WSDL version 423,2013-02-06 16:54:00,
2013-02-06 10:59:00,38.6,28.4,30.12,South,190,6.6,10.7,67,0.00,,,0.00,WSDL version 423,2013-02-06 16:59:00,
2013-02-06 11:04:00,38.9,29.1,30.12,SSW,193,6.5,10.5,68,0.00,,,0.00,WSDL version 423,2013-02-06 17:04:00,
2013-02-06 11:09:00,39.1,28.7,30.12,SSW,200,4.8,10.5,66,0.00,,,0.00,WSDL version 423,2013-02-06 17:09:00,
2013-02-06 11:14:00,39.3,29.2,30.09,SSW,197,5.0,8.9,67,0.00,,,0.00,WSDL version 423,2013-02-06 17:14:00,
2013-02-06 11:19:00,39.4,29.1,30.09,SSW,195,5.7,13.0,66,0.00,,,0.00,WSDL version 423,2013-02-06 17:19:00,
2013-02-06 11:24:00,39.6,29.0,30.09,South,173,6.4,13.0,64,0.00,,,0.00,WSDL version 423,2013-02-06 17:24:00,
2013-02-06 11:29:00,39.7,29.4,30.09,SSW,205,5.8,10.3,67,0.00,,,0.00,WSDL version 423,2013-02-06 17:29:00,
2013-02-06 11:34:00,39.7,29.6,30.09,SSW,195,4.0,10.3,67,0.00,,,0.00,WSDL version 423,2013-02-06 17:34:00,
2013-02-06 11:39:00,39.9,29.8,30.09,South,188,6.1,8.5,67,0.00,,,0.00,WSDL version 423,2013-02-06 17:39:00,
2013-02-06 11:44:00,40.0,29.9,30.09,SSE,158,5.7,8.5,67,0.00,,,0.00,WSDL version 423,2013-02-06 17:44:00,
2013-02-06 11:49:00,40.2,30.0,30.09,South,176,5.5,7.6,65,0.00,,,0.00,WSDL version 423,2013-02-06 17:49:00,
2013-02-06 11:54:00,40.4,30.0,30.09,SSW,209,4.4,7.6,66,0.00,,,0.00,WSDL version 423,2013-02-06 17:54:00,
2013-02-06 11:59:00,40.5,30.2,30.09,SW,225,4.5,6.5,66,0.00,,,0.00,WSDL version 423,2013-02-06 17:59:00,
2013-02-06 12:04:00,40.5,30.0,30.09,South,176,7.8,10.7,66,0.00,,,0.00,WSDL version 423,2013-02-06 18:04:00,
2013-02-06 12:09:00,40.6,29.7,30.09,SSW,203,5.4,13.0,63,0.00,,,0.00,WSDL version 423,2013-02-06 18:09:00,
2013-02-06 12:14:00,40.5,29.6,30.09,SSW,203,4.7,13.0,66,0.00,,,0.00,WSDL version 423,2013-02-06 18:14:00,
2013-02-06 12:19:00,40.6,30.1,30.09,SW,225,3.9,7.6,66,0.00,,,0.00,WSDL version 423,2013-02-06 18:19:00,
2013-02-06 12:24:00,40.6,30.0,30.09,SSW,203,3.7,7.6,66,0.00,,,0.00,WSDL version 423,2013-02-06 18:24:00,
2013-02-06 12:29:00,40.6,30.5,30.09,South,180,4.2,6.3,67,0.00,,,0.00,WSDL version 423,2013-02-06 18:29:00,
2013-02-06 12:34:00,40.6,30.2,30.09,SSW,212,4.9,7.2,66,0.00,,,0.00,WSDL version 423,2013-02-06 18:34:00,
2013-02-06 12:39:00,40.7,30.4,30.09,SSE,162,4.1,7.2,67,0.00,,,0.00,WSDL version 423,2013-02-06 18:39:00,
2013-02-06 12:44:00,40.9,30.5,30.09,South,190,5.2,8.1,66,0.00,,,0.00,WSDL version 423,2013-02-06 18:44:00,
2013-02-06 12:49:00,40.8,30.5,30.09,SSE,158,4.5,9.6,66,0.00,,,0.00,WSDL version 423,2013-02-06 18:49:00,
2013-02-06 12:54:00,40.9,30.5,30.09,South,185,4.8,9.6,66,0.00,,,0.00,WSDL version 423,2013-02-06 18:54:00,
2013-02-06 12:59:00,41.0,30.6,30.09,SSW,195,4.9,7.8,65,0.00,,,0.00,WSDL version 423,2013-02-06 18:59:00,
2013-02-06 13:04:00,41.2,30.8,30.09,South,183,5.5,8.7,67,0.00,,,0.00,WSDL version 423,2013-02-06 19:04:00,
2013-02-06 13:09:00,41.3,30.7,30.09,South,174,5.0,10.3,65,0.00,,,0.00,WSDL version 423,2013-02-06 19:09:00,
2013-02-06 13:14:00,41.3,30.4,30.09,South,180,3.8,13.2,65,0.00,,,0.00,WSDL version 423,2013-02-06 19:14:00,
2013-02-06 13:19:00,41.4,30.6,30.09,South,173,7.2,13.2,65,0.00,,,0.00,WSDL version 423,2013-02-06 19:19:00,
2013-02-06 13:24:00,41.3,30.1,30.09,SSW,197,5.1,9.6,65,0.00,,,0.00,WSDL version 423,2013-02-06 19:24:00,
2013-02-06 13:29:00,41.5,30.7,30.09,SSE,149,5.6,8.5,65,0.00,,,0.00,WSDL version 423,2013-02-06 19:29:00,
2013-02-06 13:34:00,41.5,30.6,30.09,South,190,7.2,8.7,65,0.00,,,0.00,WSDL version 423,2013-02-06 19:34:00,
2013-02-06 13:39:00,41.5,30.5,30.09,South,176,6.2,10.3,65,0.00,,,0.00,WSDL version 423,2013-02-06 19:39:00,
2013-02-06 13:44:00,41.4,29.9,30.06,SSW,197,5.8,10.7,63,0.00,,,0.00,WSDL version 423,2013-02-06 19:44:00,
2013-02-06 13:49:00,41.3,29.8,30.06,South,180,7.0,10.7,63,0.00,,,0.00,WSDL version 423,2013-02-06 19:49:00,
2013-02-06 13:54:00,41.5,29.9,30.06,SSW,212,6.7,13.0,64,0.00,,,0.00,WSDL version 423,2013-02-06 19:54:00,
2013-02-06 13:59:00,41.5,29.8,30.09,South,188,6.3,13.0,63,0.00,,,0.00,WSDL version 423,2013-02-06 19:59:00,
2013-02-06 14:04:00,41.5,30.4,30.09,SSE,160,6.4,10.3,64,0.00,,,0.00,WSDL version 423,2013-02-06 20:04:00,
2013-02-06 14:09:00,41.5,30.0,30.09,South,176,7.0,12.1,63,0.00,,,0.00,WSDL version 423,2013-02-06 20:09:00,
2013-02-06 14:14:00,41.6,30.0,30.06,South,188,6.9,12.1,63,0.00,,,0.00,WSDL version 423,2013-02-06 20:14:00,
2013-02-06 14:19:00,41.7,30.0,30.06,SSW,206,5.4,11.0,63,0.00,,,0.00,WSDL version 423,2013-02-06 20:19:00,
2013-02-06 14:24:00,41.7,30.0,30.06,South,170,6.2,12.3,63,0.00,,,0.00,WSDL version 423,2013-02-06 20:24:00,
2013-02-06 14:29:00,41.7,29.9,30.06,South,171,6.6,12.3,62,0.00,,,0.00,WSDL version 423,2013-02-06 20:29:00,
2013-02-06 14:34:00,41.7,29.8,30.06,South,183,5.9,10.1,63,0.00,,,0.00,WSDL version 423,2013-02-06 20:34:00,
2013-02-06 14:39:00,41.7,30.1,30.06,SSW,196,4.9,8.7,64,0.00,,,0.00,WSDL version 423,2013-02-06 20:39:00,
2013-02-06 14:44:00,41.7,30.0,30.06,SSE,149,6.6,10.5,63,0.00,,,0.00,WSDL version 423,2013-02-06 20:44:00,
2013-02-06 14:49:00,41.7,30.0,30.06,SSW,198,5.6,10.5,63,0.00,,,0.00,WSDL version 423,2013-02-06 20:49:00,
2013-02-06 14:54:00,41.7,29.9,30.06,South,177,6.0,8.7,63,0.00,,,0.00,WSDL version 423,2013-02-06 20:54:00,
2013-02-06 14:59:00,41.7,30.1,30.06,SSW,199,6.7,8.5,64,0.00,,,0.00,WSDL version 423,2013-02-06 20:59:00,
2013-02-06 15:04:00,41.8,30.1,30.06,South,184,7.3,12.3,63,0.00,,,0.00,WSDL version 423,2013-02-06 21:04:00,
2013-02-06 15:09:00,41.9,30.1,30.06,South,180,8.7,12.3,62,0.00,,,0.00,WSDL version 423,2013-02-06 21:09:00,
2013-02-06 15:14:00,42.0,30.2,30.03,South,180,6.2,11.0,63,0.00,,,0.00,WSDL version 423,2013-02-06 21:14:00,
2013-02-06 15:19:00,42.0,30.1,30.03,South,180,5.1,8.7,62,0.00,,,0.00,WSDL version 423,2013-02-06 21:19:00,
2013-02-06 15:24:00,41.9,29.8,30.03,South,186,4.8,7.6,62,0.00,,,0.00,WSDL version 423,2013-02-06 21:24:00,
2013-02-06 15:29:00,42.2,30.5,30.03,SSE,167,5.8,7.8,63,0.00,,,0.00,WSDL version 423,2013-02-06 21:29:00,
2013-02-06 15:34:00,42.4,30.6,30.03,SSE,163,6.1,10.3,61,0.00,,,0.00,WSDL version 423,2013-02-06 21:34:00,
2013-02-06 15:39:00,42.4,30.3,30.03,South,184,5.8,12.1,62,0.00,,,0.00,WSDL version 423,2013-02-06 21:39:00,
2013-02-06 15:44:00,42.4,30.2,30.03,South,180,4.5,12.1,61,0.00,,,0.00,WSDL version 423,2013-02-06 21:44:00,
2013-02-06 15:49:00,42.5,29.9,30.03,South,180,4.4,8.7,61,0.00,,,0.00,WSDL version 423,2013-02-06 21:49:00,
2013-02-06 15:54:00,42.4,30.3,30.03,SSW,195,3.2,8.7,62,0.00,,,0.00,WSDL version 423,2013-02-06 21:54:00,
2013-02-06 15:59:00,42.4,30.3,30.03,NE,48,2.9,8.1,62,0.00,,,0.00,WSDL version 423,2013-02-06 21:59:00,
2013-02-06 16:04:00,42.3,30.2,30.03,ESE,109,2.4,4.7,62,0.00,,,0.00,WSDL version 423,2013-02-06 22:04:00,
2013-02-06 16:09:00,42.3,30.3,30.03,NW,325,2.1,4.7,63,0.00,,,0.00,WSDL version 423,2013-02-06 22:09:00,
2013-02-06 16:14:00,42.3,30.3,30.00,SSE,155,3.8,6.3,62,0.00,,,0.00,WSDL version 423,2013-02-06 22:14:00,
2013-02-06 16:19:00,42.3,30.4,30.00,SSW,199,2.6,6.3,63,0.00,,,0.00,WSDL version 423,2013-02-06 22:19:00,
2013-02-06 16:24:00,42.1,30.4,30.00,North,354,2.6,4.9,63,0.00,,,0.00,WSDL version 423,2013-02-06 22:24:00,
2013-02-06 16:29:00,41.9,30.3,30.00,North,353,3.4,4.7,63,0.00,,,0.00,WSDL version 423,2013-02-06 22:29:00,
2013-02-06 16:34:00,41.6,30.2,30.00,NW,321,2.1,4.7,64,0.00,,,0.00,WSDL version 423,2013-02-06 22:34:00,
2013-02-06 16:39:00,41.5,30.2,30.00,ENE,71,2.9,4.3,64,0.00,,,0.00,WSDL version 423,2013-02-06 22:39:00,
2013-02-06 16:44:00,41.2,29.9,30.00,SSW,208,2.0,4.3,64,0.00,,,0.00,WSDL version 423,2013-02-06 22:44:00,
2013-02-06 16:49:00,41.0,29.8,30.00,NE,51,2.1,4.3,65,0.00,,,0.00,WSDL version 423,2013-02-06 22:49:00,
2013-02-06 16:54:00,40.8,29.9,30.00,East,101,2.5,3.8,65,0.00,,,0.00,WSDL version 423,2013-02-06 22:54:00,
2013-02-06 16:59:00,40.6,30.1,30.03,East,90,1.9,3.8,66,0.00,,,0.00,WSDL version 423,2013-02-06 22:59:00,
2013-02-06 17:04:00,40.5,30.0,30.03,NNW,338,2.3,3.1,66,0.00,,,0.00,WSDL version 423,2013-02-06 23:04:00,
2013-02-06 17:09:00,40.4,29.9,30.03,North,354,1.7,3.6,66,0.00,,,0.00,WSDL version 423,2013-02-06 23:09:00,
2013-02-06 17:14:00,40.1,29.9,30.00,NNE,30,1.5,3.6,67,0.00,,,0.00,WSDL version 423,2013-02-06 23:14:00,
2013-02-06 17:19:00,39.9,29.9,30.00,ENE,70,2.0,4.3,67,0.00,,,0.00,WSDL version 423,2013-02-06 23:19:00,
2013-02-06 17:24:00,39.9,30.0,30.00,NNE,32,1.8,4.3,68,0.00,,,0.00,WSDL version 423,2013-02-06 23:24:00,
2013-02-06 17:29:00,39.7,30.0,30.03,East,80,2.2,5.8,68,0.00,,,0.00,WSDL version 423,2013-02-06 23:29:00,
2013-02-06 17:34:00,39.6,30.0,30.03,South,185,2.5,5.8,69,0.00,,,0.00,WSDL version 423,2013-02-06 23:34:00,
2013-02-06 17:39:00,39.4,30.1,30.03,SSE,158,3.0,5.4,69,0.00,,,0.00,WSDL version 423,2013-02-06 23:39:00,
2013-02-06 17:44:00,39.3,30.1,30.03,WSW,255,2.2,4.9,70,0.00,,,0.00,WSDL version 423,2013-02-06 23:44:00,
2013-02-06 17:49:00,39.2,30.2,30.03,SSE,165,2.4,5.6,70,0.00,,,0.00,WSDL version 423,2013-02-06 23:49:00,
2013-02-06 17:54:00,39.2,30.3,30.03,SSE,167,2.5,5.6,71,0.00,,,0.00,WSDL version 423,2013-02-06 23:54:00,
2013-02-06 17:59:00,39.2,30.8,30.03,South,188,3.9,6.0,72,0.00,,,0.00,WSDL version 423,2013-02-06 23:59:00,
2013-02-06 18:04:00,39.3,31.2,30.03,SSE,158,5.1,8.5,73,0.00,,,0.00,WSDL version 423,2013-02-07 00:04:00,
2013-02-06 18:09:00,39.5,31.6,30.03,South,180,5.1,8.5,73,0.00,,,0.00,WSDL version 423,2013-02-07 00:09:00,
2013-02-06 18:14:00,39.6,31.6,30.03,South,174,4.6,7.6,73,0.00,,,0.00,WSDL version 423,2013-02-07 00:14:00,
2013-02-06 18:19:00,39.6,31.7,30.03,SSW,208,4.6,7.8,73,0.00,,,0.00,WSDL version 423,2013-02-07 00:19:00,
2013-02-06 18:24:00,39.5,31.5,30.03,SSE,165,4.1,7.8,72,0.00,,,0.00,WSDL version 423,2013-02-07 00:24:00,
2013-02-06 18:29:00,39.4,31.5,30.03,SSW,199,3.0,10.1,73,0.00,,,0.00,WSDL version 423,2013-02-07 00:29:00,
2013-02-06 18:35:00,39.3,31.4,30.03,SSE,167,5.2,8.5,73,0.00,,,0.00,WSDL version 423,2013-02-07 00:35:00,
2013-02-06 18:40:00,39.2,31.3,30.03,South,173,4.4,8.5,73,0.00,,,0.00,WSDL version 423,2013-02-07 00:40:00,
2013-02-06 18:45:00,39.2,31.3,30.03,South,170,3.5,6.5,73,0.00,,,0.00,WSDL version 423,2013-02-07 00:45:00,
2013-02-06 18:51:00,39.2,31.3,30.03,NE,45,2.5,6.3,73,0.00,,,0.00,WSDL version 423,2013-02-07 00:51:00,
2013-02-06 18:56:00,39.2,31.3,30.03,SW,230,3.4,5.8,73,0.00,,,0.00,WSDL version 423,2013-02-07 00:56:00,
2013-02-06 19:01:00,39.2,31.3,30.00,South,186,3.6,6.3,73,0.00,,,0.00,WSDL version 423,2013-02-07 01:01:00,
2013-02-06 19:06:00,39.2,31.3,30.00,NNE,23,3.1,6.3,73,0.00,,,0.00,WSDL version 423,2013-02-07 01:06:00,
2013-02-06 19:11:00,39.2,31.3,30.00,North,351,3.5,5.4,73,0.00,,,0.00,WSDL version 423,2013-02-07 01:11:00,
2013-02-06 19:16:00,39.2,31.3,30.00,North,360,3.5,5.4,73,0.00,,,0.00,WSDL version 423,2013-02-07 01:16:00,
2013-02-06 19:21:00,39.2,31.2,30.00,NE,38,2.6,5.4,73,0.00,,,0.00,WSDL version 423,2013-02-07 01:21:00,
2013-02-06 19:26:00,39.0,31.2,30.00,West,263,2.8,5.8,74,0.00,,,0.00,WSDL version 423,2013-02-07 01:26:00,
2013-02-06 19:31:00,38.8,31.3,30.00,West,263,1.6,5.8,74,0.00,,,0.00,WSDL version 423,2013-02-07 01:31:00,
2013-02-06 19:36:00,38.8,31.3,30.00,NNE,26,3.5,5.8,74,0.00,,,0.00,WSDL version 423,2013-02-07 01:36:00,
2013-02-06 19:41:00,38.7,31.1,30.00,East,80,3.1,6.3,74,0.00,,,0.00,WSDL version 423,2013-02-07 01:41:00,
2013-02-06 19:47:00,38.7,30.9,30.00,West,276,2.9,7.6,73,0.00,,,0.00,WSDL version 423,2013-02-07 01:47:00,
2013-02-06 19:52:00,38.7,30.8,30.00,NW,323,2.8,7.6,73,0.00,,,0.00,WSDL version 423,2013-02-07 01:52:00,
2013-02-06 19:57:00,38.5,30.6,30.00,NW,315,1.8,4.7,73,0.00,,,0.00,WSDL version 423,2013-02-07 01:57:00,
2013-02-06 20:02:00,38.3,30.6,30.00,NE,50,3.1,6.5,74,0.00,,,0.00,WSDL version 423,2013-02-07 02:02:00,
2013-02-06 20:07:00,38.3,30.8,30.00,NNW,333,2.7,6.5,74,0.00,,,0.00,WSDL version 423,2013-02-07 02:07:00,
2013-02-06 20:12:00,38.2,30.7,30.00,South,174,4.8,9.6,74,0.00,,,0.00,WSDL version 423,2013-02-07 02:12:00,
2013-02-06 20:17:00,38.1,30.6,30.00,West,278,3.3,9.8,74,0.00,,,0.00,WSDL version 423,2013-02-07 02:17:00,
2013-02-06 20:22:00,38.1,30.6,30.00,South,176,4.4,9.8,75,0.00,,,0.00,WSDL version 423,2013-02-07 02:22:00,
2013-02-06 20:27:00,38.0,30.7,30.00,South,188,4.4,10.3,75,0.00,,,0.00,WSDL version 423,2013-02-07 02:27:00,
2013-02-06 20:32:00,37.9,30.7,30.00,SE,140,3.5,10.3,75,0.00,,,0.00,WSDL version 423,2013-02-07 02:32:00,
2013-02-06 20:37:00,37.7,30.5,30.00,South,180,2.9,6.5,75,0.00,,,0.00,WSDL version 423,2013-02-07 02:37:00,
2013-02-06 20:43:00,37.5,30.4,30.00,NNW,330,3.0,5.8,75,0.00,,,0.00,WSDL version 423,2013-02-07 02:43:00,
2013-02-06 20:48:00,37.4,30.2,30.00,SE,129,3.5,7.4,75,0.00,,,0.00,WSDL version 423,2013-02-07 02:48:00,
2013-02-06 20:53:00,37.2,30.4,30.00,South,169,3.1,7.4,76,0.00,,,0.00,WSDL version 423,2013-02-07 02:53:00,
2013-02-06 20:58:00,37.0,30.2,30.00,South,184,2.9,5.6,76,0.00,,,0.00,WSDL version 423,2013-02-07 02:58:00,
2013-02-06 21:03:00,37.0,30.4,30.00,SSW,193,4.3,8.7,77,0.00,,,0.00,WSDL version 423,2013-02-07 03:03:00,
2013-02-06 21:08:00,36.9,30.7,30.00,WSW,243,3.3,8.7,78,0.00,,,0.00,WSDL version 423,2013-02-07 03:08:00,
2013-02-06 21:13:00,36.7,30.5,29.97,SSE,158,4.1,7.6,78,0.00,,,0.00,WSDL version 423,2013-02-07 03:13:00,
2013-02-06 21:18:00,36.7,30.7,29.97,SE,135,6.5,12.5,79,0.00,,,0.00,WSDL version 423,2013-02-07 03:18:00,
2013-02-06 21:23:00,36.7,30.8,29.97,SW,230,4.4,12.5,79,0.00,,,0.00,WSDL version 423,2013-02-07 03:23:00,
2013-02-06 21:28:00,36.7,30.8,30.00,South,176,4.8,8.7,79,0.00,,,0.00,WSDL version 423,2013-02-07 03:28:00,
2013-02-06 21:33:00,36.8,30.9,30.00,South,180,5.0,10.5,79,0.00,,,0.00,WSDL version 423,2013-02-07 03:33:00,
2013-02-06 21:39:00,36.9,31.0,30.00,SSW,194,7.4,11.9,79,0.00,,,0.00,WSDL version 423,2013-02-07 03:39:00,
2013-02-06 21:44:00,36.8,30.7,30.00,SSE,167,5.1,11.9,78,0.00,,,0.00,WSDL version 423,2013-02-07 03:44:00,
2013-02-06 21:49:00,36.7,30.5,30.00,South,175,6.0,10.5,78,0.00,,,0.00,WSDL version 423,2013-02-07 03:49:00,
2013-02-06 21:54:00,36.7,30.8,30.00,SE,135,6.9,12.8,79,0.00,,,0.00,WSDL version 423,2013-02-07 03:54:00,
2013-02-06 21:59:00,36.6,30.8,30.00,SSE,161,6.7,12.8,79,0.00,,,0.00,WSDL version 423,2013-02-07 03:59:00,
2013-02-06 22:04:00,36.5,30.6,30.00,SSE,166,7.5,12.8,79,0.00,,,0.00,WSDL version 423,2013-02-07 04:04:00,
2013-02-06 22:09:00,36.3,30.4,30.00,SSW,210,5.0,10.5,79,0.00,,,0.00,WSDL version 423,2013-02-07 04:09:00,
2013-02-06 22:15:00,36.3,30.4,30.00,SSE,158,6.3,10.1,79,0.00,,,0.00,WSDL version 423,2013-02-07 04:15:00,
2013-02-06 22:20:00,36.1,30.4,30.00,SSE,161,4.7,10.7,80,0.00,,,0.00,WSDL version 423,2013-02-07 04:20:00,
2013-02-06 22:25:00,36.0,30.5,30.00,South,169,4.8,10.7,80,0.00,,,0.00,WSDL version 423,2013-02-07 04:25:00,
2013-02-06 22:30:00,35.9,30.3,29.97,South,169,6.9,10.7,80,0.00,,,0.00,WSDL version 423,2013-02-07 04:30:00,
2013-02-06 22:35:00,35.8,30.4,29.97,SSE,158,6.4,10.7,81,0.00,,,0.00,WSDL version 423,2013-02-07 04:35:00,
2013-02-06 22:40:00,35.8,30.5,29.97,SSE,158,6.9,11.2,81,0.00,,,0.00,WSDL version 423,2013-02-07 04:40:00,
2013-02-06 22:45:00,35.8,30.5,30.00,South,170,7.2,13.4,81,0.00,,,0.00,WSDL version 423,2013-02-07 04:45:00,
2013-02-06 22:50:00,35.6,30.5,30.00,South,177,9.3,15.2,82,0.00,,,0.00,WSDL version 423,2013-02-07 04:50:00,
2013-02-06 22:55:00,35.6,30.7,30.00,South,174,6.8,15.2,82,0.00,,,0.00,WSDL version 423,2013-02-07 04:55:00,
2013-02-06 23:00:00,35.6,30.6,29.97,SW,222,6.7,12.5,82,0.00,,,0.00,WSDL version 423,2013-02-07 05:00:00,
2013-02-06 23:01:00,35.6,30.6,29.97,South,183,6.3,12.5,82,0.00,,,0.00,WSDL version 423,2013-02-07 05:01:00,
2013-02-06 23:03:00,35.5,30.6,29.97,SSE,158,6.9,11.0,82,0.00,,,0.00,WSDL version 423,2013-02-07 05:03:00,
2013-02-06 23:04:00,35.5,30.6,29.97,SSE,165,6.4,12.8,82,0.00,,,0.00,WSDL version 423,2013-02-07 05:04:00,
2013-02-06 23:09:00,35.4,30.6,29.97,SSE,160,3.9,12.8,82,0.00,,,0.00,WSDL version 423,2013-02-07 05:09:00,
2013-02-06 23:14:00,35.5,30.8,29.97,South,172,5.9,10.7,83,0.00,,,0.00,WSDL version 423,2013-02-07 05:14:00,
2013-02-06 23:19:00,35.6,31.0,29.97,South,183,5.1,10.7,83,0.00,,,0.00,WSDL version 423,2013-02-07 05:19:00,
2013-02-06 23:24:00,35.6,31.0,29.97,South,170,6.4,10.3,83,0.00,,,0.00,WSDL version 423,2013-02-07 05:24:00,
2013-02-06 23:29:00,35.7,31.1,29.97,SSE,158,6.1,9.8,83,0.00,,,0.00,WSDL version 423,2013-02-07 05:29:00,
2013-02-06 23:34:00,35.8,31.1,29.97,South,172,6.2,8.7,83,0.00,,,0.00,WSDL version 423,2013-02-07 05:34:00,
2013-02-06 23:39:00,35.8,30.9,29.97,SSE,158,5.3,8.7,82,0.00,,,0.00,WSDL version 423,2013-02-07 05:39:00,
2013-02-06 23:44:00,36.0,31.0,29.97,SSE,158,5.6,8.5,82,0.00,,,0.00,WSDL version 423,2013-02-07 05:44:00,
2013-02-06 23:49:00,36.0,31.0,29.97,South,185,4.6,8.5,82,0.00,,,0.00,WSDL version 423,2013-02-07 05:49:00,
2013-02-06 23:54:00,36.1,31.1,29.97,SSE,166,5.5,11.9,82,0.00,,,0.00,WSDL version 423,2013-02-07 05:54:00,
2013-02-06 23:59:00,36.1,31.2,29.97,WSW,253,6.9,12.1,82,0.00,,,0.00,WSDL version 423,2013-02-07 05:59:00,